www.pogodaiklimat.ru

Погода и климат >> Архив погоды >> Аргентина >> Сан-Мартин


ПОГОДА в Сан-Мартине

  • Прогноз погоды в Сан-Мартине
  • Монитор погоды в Сан-Мартине

АРХИВ ПОГОДЫ в Сан-Мартине

Время (UTC), дата Ветер
(напр.,м/с)
 
Видим.   Явления Облачность Т
(С)
Тd
(С)
f
(%)
Тe
(С)
Тes
(С)
Комфортность P
(гПа)
Po
(гПа)
Тmin
(С)
Tmax
(С)
R
(мм)
R24
(мм)
S
(см)
12 11.06 штиль 0 15 км 6/6 1050 м
[Sc]
+7.0 +2.8 75 +6 +6 1015.5 939.2 +6.6 +11.8
15 11.06 ЮЗ 1 15 км 9/9 1200 м
[Sc]
+11.0 +3.0 58 +11 +12 1014.9 938.8
18 11.06 ЮЗ 1 15 км 3/0
[Cs]
+15.4 +4.4 48 +16 +22 1008.9 933.7
21 11.06 штиль 0 15 км 3/0
[Cs]
+13.3 +5.7 60 +13 +13 1008.6 933.2
00 12.06 штиль 0 15 км ясно +8.3 +5.3 81 +8 +8 1010.1 933.6 +7.0 +15.9
03 12.06 штиль 0 15 км ясно +7.0 +4.8 86 +6 +6 1010.4 934.2
06 12.06 штиль 0 15 км ясно +5.3 +3.0 85 +4 +4 1009.8 934.1
09 12.06 штиль 0 15 км ясно +4.5 +1.3 80 +4 +4 1009.6 933.6
12 12.06 ЮЗ 3 15 км 3/1 1050 м
[Sc Ac As Cc]
+3.8 +0.2 77 +1 +1 1013.2 936.1 +3.6 +8.9
15 12.06 Ю 4 15 км 3/3 750 м
[Sc Cc]
+11.7 +4.2 60 +10 +12 1013.8 937.6
18 12.06 ЮВ 4 15 км 6/6 750 м
[Sc]
+15.1 +3.2 45 +14 +16 1010.4 934.6
21 12.06 штиль 0 15 км 1/0
[Ac As]
+12.6 +4.1 56 +12 +13 1011.5 935.2
00 13.06 штиль 0 15 км ясно +7.5 +5.1 85 +7 +7 1013.9 936.6 +3.8 +16.0
03 13.06 штиль 0 200 м туман 10/10
[]
+6.5 +6.1 97 +5 +5 1013.6 937.3
06 13.06 ЮЗ 1 15 км {туман} 10/10 750 м
[St]
+7.3 +4.4 82 +6 +6 1011.8 936.1
09 13.06 ЮЗ 4 15 км 10/10 750 м
[St]
+4.6 +1.4 80 0 0 1011.7 935.4
12 13.06 ЮЗ 1 15 км 1/1 1050 м
[St]
+4.2 +1.0 80 +3 +3 1014.8 937.6 +3.6 +7.9
15 13.06 ЮЗ 4 15 км ясно +11.7 +2.9 55 +10 +13 1014.7 938.2
18 13.06 ЮВ 1 15 км ясно +16.0 +3.4 43 +17 +23 1012.5 936.9
21 13.06 ЮВ 1 15 км ясно +15.1 +1.1 39 +16 +16 1014.7 938.4
00 14.06 штиль 0 15 км ясно +8.8 +2.9 66 +8 +8 1018.6 941.2 +4.2 +16.5
03 14.06 штиль 0 15 км 1/1 1050 м
[Sc]
+7.0 +1.8 69 +6 +6 1020.0 943.2
06 14.06 штиль 0 15 км ясно +5.6 +1.7 76 +5 +5 1019.6 943.2
09 14.06 штиль 0 15 км ясно +4.4 +1.5 81 +3 +3 1019.4 942.8
12 14.06 ЮЗ 1 15 км 4/0
[Ac trans]
+3.8 -0.1 76 +2 +3 1020.8 943.2 +2.6 +8.9
15 14.06 ЮВ 3 15 км 3/1 1350 м
[Sc Ac trans]
+10.9 +0.3 48 +10 +13 1020.2 943.3
18 14.06 ЮВ 4 15 км 5/5 1200 м
[Sc]
+12.2 -0.6 41 +11 +12 1017.8 941.2
21 14.06 ЮВ 7 15 км 5/5 1200 м
[Sc]
+10.4 -0.5 47 +7 +7 1019.4 942.2
00 15.06 штиль 0 15 км 5/5 1050 м
[Sc]
+7.4 0.0 59 +7 +7 1021.0 943.2 +3.8 +13.0
03 15.06 ЮЗ 3 15 км 10/10 750 м
[St]
+7.5 -1.4 53 +5 +5 1021.2 944.2
06 15.06 ЮЗ 3 15 км 5/5 1050 м
[Sc]
+5.0 +1.6 79 +2 +2 1021.4 944.4
09 15.06 ЮЗ 3 6000 м слаб. морось 10/10 600 м
[Frnb]
+5.6 +1.7 76 +3 +3 1022.9 945.6
12 15.06 ЮЗ 1 15 км {морось} 9/9 1050 м
[Sc]
+5.8 +0.3 68 +5 +5 1026.2 948.2 +4.9 +7.8 0.0
15 15.06 Ю 4 15 км 10/10 1050 м
[Sc]
+7.2 +1.5 67 +4 +4 1027.3 949.4
18 15.06 Ю 4 15 км 10/10 1050 м
[Sc]
+7.8 -1.3 53 +5 +5 1026.5 948.5
21 15.06 Ю 4 15 км 10/10 1050 м
[Sc]
+6.4 -1.3 58 +3 +3 1027.5 949.3
00 16.06 ЮЗ 1 15 км 10/10 1050 м
[Sc]
+6.0 -1.9 57 +5 +5 1030.2 951.7 +5.8 +8.7
03 16.06 штиль 0 15 км 3/0
[Cs]
+4.3 +0.8 78 +3 +3 1031.0 952.5
09 16.06 ЮЗ 1 15 км 5/5 750 м
[St]
+3.8 +0.5 79 +2 +2 1029.2 950.6
12 16.06 штиль 0 15 км 8/8 600 м
[Cb calv]
+4.0 +0.5 78 +3 +3 1030.0 951.3 +2.8 +6.0
15 16.06 штиль 0 15 км 8/8 600 м
[St]
+4.0 +0.5 78 +3 +5 1030.0 951.3 +2.8 +6.0
18 16.06 штиль 0 15 км 8/8 1200 м
[Sc]
+9.1 +1.1 57 +9 +10 1026.8 948.8
21 16.06 Ю 1 15 км 8/8 600 м
[Sc]
+8.0 +1.9 65 +7 +7 1025.0 947.0
00 17.06 штиль 0 15 км 8/8 1050 м
[Sc]
+5.4 +1.5 76 +5 +5 1027.0 948.5 +4.0 +9.5
03 17.06 штиль 0 15 км 9/9 1050 м
[Sc]
+5.6 +2.3 79 +5 +5 1026.3 948.2
06 17.06 Ю 1 15 км 10/10 1050 м
[Sc]
+3.8 +1.8 87 +2 +2 1023.4 945.6
09 17.06 ЮВ 1 15 км 10/10 1050 м
[Sc]
+4.2 +2.3 87 +3 +3 1022.0 944.2
12 17.06 штиль 0 15 км 6/6 600 м
[Sc]
+3.8 +1.6 86 +3 +3 1022.9 944.6 +3.1 +6.0
15 17.06 ЮЗ 3 15 км 6/4 1050 м
[Cu Sc Cs]
+7.5 +2.7 72 +5 +8 1021.7 944.1
18 17.06 СЗ 1 15 км 6/4 1200 м
[Cu hum Cs]
+11.3 +0.6 48 +11 +15 1016.8 939.8
21 17.06 СЗ 1 15 км 5/0
[Cs]
+10.9 -1.0 44 +11 +11 1015.6 938.6
00 18.06 штиль 0 15 км 3/0
[Cs]
+5.2 -0.4 67 +5 +5 1018.1 940.2 +3.8 +12.0
03 18.06 штиль 0 15 км 6/0
[Ci]
+4.9 -0.8 67 +4 +4 1019.1 941.6
06 18.06 ЮЗ 1 15 км 8/0
[Cs]
+2.9 -2.3 69 +2 +2 1018.5 941.3
09 18.06 ЮЗ 1 15 км ясно +1.5 -3.4 70 0 0 1018.8 941.3

 

Местоположение метеостанции Сан-Мартин (Аргентина): широта -33.08 долгота -68.41 высота над уровнем моря 653 м.

В архиве по умолчанию представлена погода в Сан-Мартине за последнюю неделю. Архивные данные за месяц целиком и за предыдущие месяцы, начиная с января 2011 года, Вы можете получить, выбрав интересующий диапазон дат из раскрывающегося списка и нажав кнопку "Ввод!".


*Определитесь, кто Вы:
робот инопланетянин человек

Внимание! Время в таблицах - всемирное. Для получения местного времени необходимо прибавить поправку, которая равна -3 ч.

Смотрите также архив погоды в соседних городах и на ближайших метеорологических станциях:

Погода в Мендосе (Аргентина) (44 км)
Погода на Пасо Лос Либертадорес (Чили) (162 км)
Погода в Сан-Рафаэле (Аргентина) (167 км)
Погода в Сан-Хуане (Аргентина) (187 км)
Погода в Сан-Хосе-де-Майпо (Чили) (190 км)
Погода в Сан-Луисе (Аргентина) (193 км)
Погода в Сантьяго Агуас Андинас (Чили) (206 км)
Погода в Сантьяго (Чили) (215 км)
Погода в Ло-Пинто (Чили) (217 км)
Погода в Пудауэле (Чили) (223 км)

Пояснения к столбцам:

Ветер - указаны скорость ветра в м/с - средняя за 10 мин, порывы в срок и между сроками (в фигурных скобках) и направление, откуда дует ветер: С - северный, СВ - северо-восточный, В - восточный, ЮВ - юго-восточный, Ю - южный, ЮЗ - юго-западный, З - западный, СЗ - северо-западный.
Видимость - горизонтальная дальность видимости в метрах или километрах. При видимости от 1 до 10 км при отсутствии осадков обычно наблюдается дымка, при ухудшении видимости до 1 км и менее - туман. В сухую погоду видимость может ухудшаться дымом, пылью или мглою.
Явления - указаны атмосферные явления, наблюдавшиеся в срок или в последний час перед сроком; фигурными скобками обозначены явления, наблюдавшиеся между сроками (за 1-3 часа до срока); квадратными скобками обозначены град или гололедные отложения с указанием их диаметра в мм.
Облачность - указаны через наклонную черту общая и нижняя облачность в баллах и высота нижней границы облаков в метрах; квадратными скобками обозначены формы облаков: Ci - перистые, Cs - перисто-слоистые, Cc - перисто-кучевые, Ac - высококучевые, As - высокослоистые, Sc - слоисто-кучевые, Ns - слоисто-дождевые, Cu - кучевые, Cb - кучево-дождевые. Подробнее классификацию облаков см. в Атласе облаков (PDF).
T - Температура воздуха - температура, измеренная на высоте 2 м над землей.
Td - Температура точки росы - температура, при понижении до которой содержащийся в воздухе водяной пар достигнет насыщения.
f - Относительная влажность воздуха - влажноcть воздуха, измеренная на высоте 2 м над землей.
Te - Эффективная температура - температура, которую ощущает одетый по сезону человек в тени. Характеристика душности погоды. При расчете учитывается влияние влажности воздуха и скорости ветра на теплоощущения человека.
Tes - Эффективная температура на солнце - температура, которую ощущает человек, с поправкой на солнечный нагрев. Характеристика знойности погоды. Зависит от высоты солнца над горизонтом, облачности и скорости ветра. Ночью, в пасмурную погоду, а также при ветре 12 м/с и более поправка равна нулю.
P - Атмосферное давление - приведенное к уровню моря атмосферное давление.
Po - Атмосферное давление - измеренное на уровне метеостанции атмосферное давление.
Tmin - Минимальная температура - минимум температуры воздуха на высоте 2 м над землей.
Tmax - Максимальная температура - максимум температуры воздуха на высоте 2 м над землей.
R - Количество осадков - Количество выпавших осадков за период времени, мм. При наведении курсора мыши на число - период времени, за который выпало указанное количество осадков.
R24 - Количество осадков - Количество выпавших осадков за 24 часа, мм.
S - Снежный покров - Высота снежного покрова, см. При наведении курсора мыши на число - состояние снежного покрова и степень покрытия местности в баллах.